カタログに戻る

SL-12 DEB

運用中HEO
NORAD 23294·DEBRIS·🇷🇺 Russia

打ち上げ Dec 24, 1985 から Baikonur Cosmodrome

Loading…

次のパス (今後24時間)

TLE

経年Source: Space-Track

元期: Sep 2, 2026, 09:36 UTC

1 23294U 85118R   26245.40033139  .00001101  00000-0  13127-2 0  9994
2 23294  65.1069 358.5931 5446265  33.4658   8.4982  4.73729364 43489

AllMySatでSL-12 DEBをリアルタイム追跡

Download on the App Store